Tracking 28888 objects as of 22-May-2024
HD Live streaming from Space Station
objects crossing your sky now

DELTA 1 DEB

Track DELTA 1 DEB now!
10-day predictions


NORAD ID: 9979
Int'l Code: 1973-086GJ
Perigee: 1,415.4 km
Apogee: 2,421.0 km
Inclination: 101.9 °
Period: 125.2 minutes
Semi major axis: 8289 km
RCS: 0.0244 m2 (small)
Launch date: November 6, 1973
Source: United States (US)
Launch site: AIR FORCE WESTERN TEST RANGE (AFWTR)

Note: This is SATELLITE DEBRIS
Your satellite tracking list
Your tracking list is empty




NASA's NSSDC Master Catalog

Two Line Element Set (TLE):
1 09979U 73086GJ  24140.03765043 -.00000008  00000-0  32776-3 0  9994
2 09979 101.9173 179.1119 0606586  93.8181 300.7694 11.50361544432602
Source of the keplerian elements: AFSPC